Weather History for Wenatchee, WA

Change the Weather History Date:

Tuesday, November 20, 2012

  Actual Average Record
Temperature  
Mean Temperature 47 °F 32 °F  
Max Temperature 55 °F 39 °F 62 °F (1962)
Min Temperature 38 °F 26 °F 6 °F (1985)
Degree Days  
Heating Degree Days 18 33  
Month to date heating degree days 443 580  
Since 1 July heating degree days 890 1536  
Cooling Degree Days 0 0  
Month to date cooling degree days 0 0  
Year to date cooling degree days 888 249  
Moisture  
Dew Point 38 °F    
Average Humidity 76    
Maximum Humidity 92    
Minimum Humidity 59    
Precipitation  
Precipitation 0.01 in 0.09 in 0.49 in (1966)
Month to date precipitation 0.35 1.40  
Year to date precipitation 7.33 13.74  
Snow  
Snow 0.00 in 0.40 in - ()
Month to date snowfall 3.6  
Since 1 July snowfall 3.7  
Since 1 September snowfall 3.7  
Snow Depth -    
Sea Level Pressure  
Sea Level Pressure 29.66 in    
Wind  
Wind Speed 4 mph (NE)    
Max Wind Speed 28 mph    
Max Gust Speed 35 mph    
Visibility 10 miles    
Events Rain    
T = Trace of Precipitation, MM = Missing Value Source: NWS Daily Summary

Daily Weather History Graph

Daily Weather History Graph

Search for Another Location

Airport:

Trip Planner

Search our weather history database for the weather conditions in past years. The results will help you decide how hot, cold, wet, or windy it might be!

Date:

Astronomy

Nov. 20, 2012 Rise Set
Actual Time 7:13 AM PST 4:19 PM PST
Civil Twilight 6:39 AM PST 4:53 PM PST
Nautical Twilight 6:01 AM PST 5:31 PM PST
Astronomical Twilight 5:25 AM PST 6:07 PM PST
Moon 12:35 PM PST No Moon Set
Length of Visible Light 10h 13m
Length of Day
9h 05m
First Quarter, 52% of the Moon is Illuminated
Nov 20
First Quarter
Nov 28
Full
Dec 6
Last Quarter
Dec 13
New
Dec 19
First Quarter

Hourly Weather History & Observations

Time (PST) Temp. Windchill Dew Point Humidity Pressure Visibility Wind Dir Wind Speed Gust Speed Precip Events Conditions
12:55 AM 43.0 °F 39.5 °F 37.9 °F 82% 29.70 in 10.0 mi North 5.8 mph - N/A   Clear
1:55 AM 42.1 °F 40.2 °F 37.0 °F 82% 29.72 in 10.0 mi NE 3.5 mph - N/A   Mostly Cloudy
2:55 AM 43.0 °F - 37.0 °F 80% 29.74 in 10.0 mi Calm Calm - N/A   Scattered Clouds
3:55 AM 42.1 °F - 36.0 °F 79% 29.73 in 10.0 mi Calm Calm - N/A   Mostly Cloudy
4:55 AM 41.0 °F 38.0 °F 37.0 °F 86% 29.72 in 10.0 mi NE 4.6 mph - N/A   Partly Cloudy
5:55 AM 41.0 °F 39.0 °F 37.0 °F 86% 29.72 in 10.0 mi ENE 3.5 mph - N/A   Overcast
6:55 AM 42.1 °F - 37.0 °F 82% 29.70 in 10.0 mi Calm Calm - N/A   Clear
7:55 AM 39.9 °F - 37.0 °F 89% 29.70 in 10.0 mi Calm Calm - N/A   Overcast
8:55 AM 42.1 °F - 37.0 °F 82% 29.68 in 10.0 mi Calm Calm - N/A   Overcast
9:55 AM 42.1 °F - 37.9 °F 85% 29.66 in 10.0 mi Calm Calm - N/A   Overcast
10:55 AM 44.1 °F - 37.9 °F 79% 29.65 in 10.0 mi Calm Calm - N/A   Overcast
11:04 AM 44.6 °F - 37.4 °F 76% 29.63 in 10.0 mi Calm Calm - N/A   Overcast
11:11 AM 44.6 °F - 39.2 °F 81% 29.62 in 10.0 mi Calm Calm - N/A   Overcast
11:55 AM 52.0 °F - 43.0 °F 71% 29.60 in 10.0 mi ENE 11.5 mph 18.4 mph N/A   Overcast
12:19 PM 50.0 °F - 42.8 °F 76% 29.59 in 10.0 mi East 11.5 mph - N/A   Overcast
12:55 PM 51.1 °F - 42.1 °F 71% 29.60 in 10.0 mi East 11.5 mph 19.6 mph N/A   Overcast
1:55 PM 52.0 °F - 44.1 °F 74% 29.59 in 10.0 mi East 16.1 mph - N/A   Mostly Cloudy
2:55 PM 54.0 °F - 42.1 °F 64% 29.58 in 10.0 mi ESE 13.8 mph - N/A   Partly Cloudy
3:55 PM 54.0 °F - 39.9 °F 59% 29.60 in 10.0 mi Variable 3.5 mph 18.4 mph N/A   Overcast
4:25 PM 46.4 °F 38.3 °F 39.2 °F 76% 29.64 in 9.0 mi NNW 23.0 mph 34.5 mph 0.00 in Rain Light Rain
4:55 PM 46.9 °F - 37.0 °F 68% 29.64 in 10.0 mi NNW 5.8 mph - 0.01 in   Scattered Clouds
5:55 PM 43.0 °F 39.5 °F 36.0 °F 76% 29.68 in 10.0 mi SW 5.8 mph - N/A   Clear
6:55 PM 41.0 °F - 35.1 °F 79% 29.69 in 10.0 mi Calm Calm - N/A   Clear
7:55 PM 39.0 °F - 34.0 °F 82% 29.67 in 10.0 mi Calm Calm - N/A   Clear
8:55 PM 37.9 °F 35.5 °F 34.0 °F 86% 29.69 in 10.0 mi West 3.5 mph - N/A   Clear
9:55 PM 41.0 °F - 35.1 °F 79% 29.69 in 10.0 mi Calm Calm - N/A   Scattered Clouds
10:55 PM 37.9 °F 35.5 °F 35.1 °F 89% 29.68 in 10.0 mi NNE 3.5 mph - N/A   Clear
11:55 PM 39.0 °F - 36.0 °F 89% 29.67 in 10.0 mi Calm Calm - N/A   Overcast